Change the Weather History Date:

Monday, January 27, 2014

  Actual Average (KISP) Record (KISP)
Temperature  
Mean Temperature 34 °F 31 °F  
Max Temperature 44 °F 38 °F 59 °F (2002)
Min Temperature 21 °F 23 °F 5 °F (1994)
Degree Days  
Heating Degree Days 32 34  
Month to date heating degree days 931  
Since 1 July heating degree days 2858  
Cooling Degree Days 0 0  
Month to date cooling degree days 0  
Year to date cooling degree days 0  
Moisture  
Dew Point 23 °F    
Average Humidity 61    
Maximum Humidity 79    
Minimum Humidity 33    
Precipitation  
Precipitation 0.00 in 0.11 in 1.04 in (1996)
Month to date precipitation 3.21  
Year to date precipitation 3.21  
Snow  
Snow 0.00 in 0.20 in 9.60 in (2011)
Month to date snowfall 5.8  
Since 1 July snowfall 11.7  
Snow Depth -    
Sea Level Pressure  
Sea Level Pressure 29.79 in    
Wind  
Wind Speed 11 mph (WSW)    
Max Wind Speed 18 mph    
Max Gust Speed 29 mph    
Visibility 10 miles    
Events      
T = Trace of Precipitation, MM = Missing Value Source: NWS Daily Summary

Daily Weather History Graph

Daily Weather History Graph

Search for Another Location

Airport or City:

Trip Planner

Search our weather history database for the weather conditions in past years. The results will help you decide how hot, cold, wet, or windy it might be!

Date:

Astronomy

Jan. 27, 2014 Rise Set
Actual Time 7:06 AM EST 5:02 PM EST
Civil Twilight 6:36 AM EST 5:32 PM EST
Nautical Twilight 6:03 AM EST 6:05 PM EST
Astronomical Twilight 5:31 AM EST 6:37 PM EST
Moon 3:44 AM EST (1/27) 1:45 PM EST (1/27)
Length of Visible Light 10h 55m
Length of Day
9h 56m
Waning Crescent, 15% of the Moon is Illuminated
Jan 27
Waning Crescent
Jan 30
New
Feb 6
First Quarter
Feb 14
Full
Feb 22
Last Quarter

Hourly Weather History & Observations

Time (EST) Temp. Windchill Dew Point Humidity Pressure Visibility Wind Dir Wind Speed Gust Speed Precip Events Conditions
12:56 AM 37.0 °F 31.0 °F 28.9 °F 73% 29.80 in 10.0 mi South 8.1 mph - N/A   Overcast
1:56 AM 39.0 °F 34.0 °F 32.0 °F 76% 29.77 in 10.0 mi South 6.9 mph - N/A   Overcast
2:56 AM 39.9 °F 31.8 °F 32.0 °F 73% 29.74 in 10.0 mi South 15.0 mph 20.7 mph N/A   Partly Cloudy
3:56 AM 39.9 °F 35.1 °F 32.0 °F 73% 29.74 in 10.0 mi SSW 6.9 mph - N/A   Clear
4:56 AM 39.0 °F 34.8 °F 33.1 °F 79% 29.72 in 10.0 mi SSW 5.8 mph - N/A   Overcast
5:56 AM 39.9 °F 32.5 °F 34.0 °F 79% 29.69 in 10.0 mi South 12.7 mph - N/A   Overcast
6:56 AM 41.0 °F 34.7 °F 34.0 °F 76% 29.68 in 10.0 mi South 10.4 mph - N/A   Overcast
7:56 AM 41.0 °F 33.9 °F 35.1 °F 79% 29.66 in 10.0 mi South 12.7 mph - N/A   Overcast
8:56 AM 43.0 °F 36.8 °F 36.0 °F 76% 29.66 in 10.0 mi SSW 11.5 mph 21.9 mph N/A   Overcast
9:56 AM 43.0 °F 36.0 °F 35.1 °F 74% 29.66 in 10.0 mi SW 13.8 mph 21.9 mph N/A   Overcast
10:56 AM 43.0 °F 35.7 °F 34.0 °F 71% 29.66 in 10.0 mi SW 15.0 mph 25.3 mph N/A   Mostly Cloudy
11:56 AM 41.0 °F 33.9 °F 34.0 °F 76% 29.64 in 10.0 mi SW 12.7 mph 21.9 mph N/A   Overcast
12:56 PM 41.0 °F 34.3 °F 34.0 °F 76% 29.64 in 10.0 mi SW 11.5 mph - N/A   Scattered Clouds
1:56 PM 44.1 °F 36.8 °F 32.0 °F 63% 29.66 in 10.0 mi WNW 16.1 mph - N/A   Clear
2:56 PM 42.1 °F 33.6 °F 26.1 °F 53% 29.71 in 10.0 mi NW 18.4 mph 28.8 mph N/A   Mostly Cloudy
3:56 PM 37.9 °F 30.0 °F 24.1 °F 57% 29.77 in 10.0 mi NW 12.7 mph 24.2 mph N/A   Mostly Cloudy
4:56 PM 32.0 °F 21.2 °F 15.1 °F 50% 29.82 in 10.0 mi NW 16.1 mph 27.6 mph N/A   Overcast
5:56 PM 30.0 °F 18.3 °F 6.1 °F 36% 29.87 in 10.0 mi NW 17.3 mph 24.2 mph N/A   Overcast
6:56 PM 28.9 °F 17.7 °F 5.0 °F 36% 29.92 in 10.0 mi NW 15.0 mph 23.0 mph N/A   Overcast
7:56 PM 28.0 °F 16.1 °F 3.9 °F 36% 29.95 in 10.0 mi NNW 16.1 mph - N/A   Overcast
8:56 PM 27.0 °F 15.2 °F 1.0 °F 33% 29.99 in 10.0 mi NW 15.0 mph - N/A   Overcast
9:56 PM 25.0 °F 12.2 °F -0.0 °F 34% 30.02 in 10.0 mi NW 16.1 mph 20.7 mph N/A   Overcast
10:56 PM 23.0 °F 11.1 °F -0.0 °F 37% 30.05 in 10.0 mi NNW 12.7 mph - N/A   Clear
11:56 PM 21.9 °F 9.2 °F -0.9 °F 37% 30.07 in 10.0 mi NW 13.8 mph 23.0 mph N/A   Clear